THOR ABLESTAR DEB, 144

Orbit data source: Space-Track

THOR ABLESTAR DEB, 144 is space debris in LEO originally from a launch on Thu, 29 Jun 1961 UTC launched from the Air Force Eastern Test Range (AFETR). Debris objects in space refer to the collection of defunct objects orbiting the Earth. Examples of debris include non-operational satellites, rocket bodies, and fragments generated from explosions, collisions, or faulty payload assembly.

Loading next visibility...
Identifier
144, 1961-015AE
Orbit
LEO
Country
Flag of USUS
Related business
Manufacturer
Unknown
Mission
Spacecraft
Bus & Motor
Unknown
Mass
Unknown
Launch date (UTC)
1961-06-29 (64 years ago)
Launch vehicle
Unknown
Launch site
Air Force Eastern Test Range (AFETR)
Object type
Payload
Rocket body
Debris
Shape & HBR
Unknown shape, 0.2 m
Radar Cross Section
Small (<0.1 m²)

Expand to show TLE details & history
Last TLE update: 8 hours ago

TLE from 8 hours ago
0 THOR ABLESTAR DEB
1 00144U 61015AE  25290.96216789  .00000325  00000-0  31684-3 0  9993
2 00144  66.4982 267.4680 0039821 164.9751 195.2518 13.91505081250949
Epoch: 2025-10-17T23:05Z
TLE epoch observation values (Epoch: 2025-10-17T23:05:31.305Z)
Latitude
-0.00011°
Longitude
-105.6125°
Altitude
953.477 km
Speed
7.361 km/s
True Right ascension
17h 49m 52s
True Declination
0° 00' 00"
Sunlit
Object was in daylight at epoch
Visualization orbit readout
Latitude
Unknown
Longitude
Unknown
Altitude
Unknown
Speed
Unknown
Apparent Right ascension
Unknown
Apparent Declination
Unknown
Sunlit
N/A
Visualization observer readout
Local Sidereal Time
01:28:38
Azimuth
Unknown
Elevation
Unknown
Doppler factor
Unknown
Orbital elements
Apogee altitude
950.858 km
Perigee altitude
892.72 km
Semi-major axis
7,299.926 km
Eccentricity
0.00398
Inclination
66.4982°
RAAN
267.468°
Arg. of periapsis
164.9751°
True anomaly
195.13233°
Mean anomaly
195.2518°
Eccentric anomaly
195.19201°
Mean motion
3.47989 °/min
Orbital period
103.45 mins
BSTAR
0.00031684

Documentation

Showing up to 5 results
|